Regional Weather Roundup
Issued by NWS New Orleans/Baton Rouge, LA

Home | Current Version | Previous Version | Text Only | Print | Product List | Glossary On
Versions: 1 2 3 4 5 6 7 8 9 10 11 12 13 14 15 16 17 18 19 20 21 22 23 24 25 26 27 28 29 30 31 32 33 34 35 36 37 38 39 40 41 42 43 44 45 46 47 48 49 50
000
ASUS44 KLIX 021610
RWRLIX
NEW ORLEANS REGIONAL WEATHER ROUNDUP
NATIONAL WEATHER SERVICE NEW ORLEANS LA
1100 AM CDT THU OCT 02 2014

NOTE: "FAIR" INDICATES FEW OR NO CLOUDS BELOW 12,000 FEET WITH NO
      SIGNIFICANT WEATHER AND/OR OBSTRUCTIONS TO VISIBILITY.
      SKY/WX - SKY CONDITION AND SIGNIFICANT WEATHER.
      TMP - AIR TEMPERATURE.     DP    - DEWPOINT TEMPERATURE.
      RH  - RELATIVE HUMIDITY.   PRES  - PRESSURE.
      HI  - HEAT INDEX.          WCI   - WIND CHILL INDEX.

*  THESE STATIONS ARE NOT NWS OR FAA STATIONS AND ARE NOT UNDER
   NWS QUALITY CONTROL.

LAZ038-040-048-061>063-065>067-069-021700-
SOUTHEAST LOUISIANA

CITY           SKY/WX    TMP DP  RH WIND       PRES   REMARKS
N.O. AUDUBON     N/A     88  78  72 MISG        N/A  HX 101
N.O. INTL ARPT LGT RAIN  86  76  71 S12       30.00S HX  96
N.O. LAKEFRONT PTSUNNY   85  75  72 S9        30.01S
N.O. DOWNTOWN* PTSUNNY   86  73  66 S9        30.01S
SLIDELL        MOSUNNY   87  74  64 S10       30.00F HX  95
BATON ROUGE    PTSUNNY   86  75  69 S12       29.99S HX  95
BOOTHVILLE     SUNNY     85  78  80 S10       30.02S HX  96
BELLE CHASSE   PTSUNNY   88  74  63 S12       30.00S HX  96
BOGALUSA*        N/A     88  74  61 S9        30.02S HX  96
GALLIANO*      NOT AVBL
NEW ROADS*     PTSUNNY   85  75  74 S12G18    29.98F
GONZALES*      PTSUNNY   86  81  85 S10       29.99S HX 102
HAMMOND*       PTSUNNY   88  73  62 S10       30.01F HX  96
HOUMA*         PTSUNNY  N/A N/A N/A SE12G17   29.99S
PORT FOURCHON* SUNNY     84  79  84 SE10      30.04S HX  96

$$

MSZ070-080>082-021700-
SOUTHERN MISSISSIPPI

CITY           SKY/WX    TMP DP  RH WIND       PRES   REMARKS
MCCOMB         PTSUNNY   83  74  74 S8        30.01S
GULFPORT       PTSUNNY   84  77  79 S14       30.01S
BILOXI         SUNNY     86  78  75 S9        30.02S HX  98
PASCAGOULA     LGT RAIN  78  75  90 S8        30.02S
STENNIS ARPT*  PTSUNNY   84  73  70 SW9       30.01S

$$

COASTAL OBSERVATIONS
LAKE AND NEARSHORE STATIONS

STATION/POSITION TIME  TEMP    WIND        PRES    WAVE
                       AIR SEA DIR/SP/G            HT/PER
                 (UTC) (F)     (DEG/KT/KT) (MB)    (FT/S)
PASCAGOULA       1600   84     170/  6/ 11 1016.1
WAVELAND YACHT   1600   81     160/ 10/ 12 1015.8
GRAND ISLE       1600   84 81  150/  6/  8 1016.7
SOUTHWEST PASS   1600   83 85  170/  7/  9 1016.8
NEW CANAL        1600   86 77  170/  5/  9 1016.3
SHELL BEACH      1600   84 75  180/ 10/ 13 1016.1

OFFSHORE STATIONS

STATION/POSITION TIME  TEMP    WIND        PRES    WAVE
                       AIR SEA DIR/SP/G            HT/PER
                 (UTC) (F)     (DEG/KT/KT) (MB)    (FT/S)
64 S DAUPHIN ISL 1506   82 83  170/ 10/ 12 1017.4    2/ 4

$$




USA.gov is the U.S. government's official web portal to all federal, state and local government web resources and services.